Weather History for Alma, MI

Change the Weather History Date:

Wednesday, November 21, 2012

  Actual Average Record
Temperature  
Mean Temperature 42 °F -  
Max Temperature 55 °F 42 °F 61 °F (1953)
Min Temperature 30 °F 27 °F 11 °F (1987)
Degree Days  
Heating Degree Days 22    
Moisture  
Dew Point 41 °F    
Average Humidity 89    
Maximum Humidity 100    
Minimum Humidity 66    
Precipitation  
Precipitation 0.00 in - - ()
Sea Level Pressure  
Sea Level Pressure 30.17 in    
Wind  
Wind Speed 2 mph (SSW)    
Max Wind Speed 12 mph    
Max Gust Speed -    
Visibility 4 miles    
Events Fog    
Averages and records for this station are not official NWS values.
T = Trace of Precipitation, MM = Missing Value Source: NWS Daily Summary

Daily Weather History Graph

Daily Weather History Graph

Search for Another Location

Airport:

Trip Planner

Search our weather history database for the weather conditions in past years. The results will help you decide how hot, cold, wet, or windy it might be!

Date:

Astronomy

Nov. 21, 2012 Rise Set
Actual Time 7:40 AM EST 5:09 PM EST
Civil Twilight 7:08 AM EST 5:40 PM EST
Nautical Twilight 6:33 AM EST 6:15 PM EST
Astronomical Twilight 5:59 AM EST 6:49 PM EST
Moon 1:34 PM EST (11/21) 12:47 AM EST (11/21)
Length of Visible Light 10h 31m
Length of Day
9h 28m
First Quarter, 61% of the Moon is Illuminated
Nov 21
First Quarter
Nov 28
Full
Dec 6
Last Quarter
Dec 13
New
Dec 20
First Quarter

Hourly Weather History & Observations

Time (EST) Temp. Windchill Dew Point Humidity Pressure Visibility Wind Dir Wind Speed Gust Speed Precip Events Conditions
12:11 AM 43.9 °F - 41.9 °F 93% 30.16 in 5.0 mi Calm Calm - N/A   Overcast
12:32 AM 43.9 °F - 41.9 °F 93% 30.16 in 4.0 mi Calm Calm - N/A   Overcast
12:52 AM 43.9 °F - 41.9 °F 93% 30.16 in 5.0 mi Calm Calm - N/A   Overcast
1:12 AM 43.7 °F - 41.7 °F 93% 30.16 in 5.0 mi Calm Calm - N/A   Overcast
1:32 AM 43.7 °F - 41.4 °F 91% 30.16 in 5.0 mi Calm Calm - N/A   Overcast
1:52 AM 43.7 °F - 41.7 °F 93% 30.16 in 5.0 mi Calm Calm - N/A   Overcast
2:12 AM 43.3 °F - 41.2 °F 92% 30.16 in 5.0 mi Calm Calm - N/A   Overcast
2:32 AM 44.1 °F - 41.9 °F 92% 30.18 in 4.0 mi Calm Calm - N/A   Overcast
2:52 AM 44.1 °F 42.5 °F 41.9 °F 92% 30.18 in 4.0 mi WNW 3.5 mph - N/A   Overcast
3:13 AM 44.1 °F - 41.7 °F 91% 30.17 in 4.0 mi Calm Calm - N/A   Overcast
3:33 AM 44.6 °F - 41.5 °F 89% 30.16 in 5.0 mi Calm Calm - N/A   Overcast
3:53 AM 42.3 °F - 40.3 °F 93% 30.16 in 4.0 mi Calm Calm - N/A   Mostly Cloudy
4:13 AM 39.6 °F - 38.3 °F 95% 30.16 in 1.5 mi Calm Calm - N/A   Scattered Clouds
4:33 AM 37.4 °F - 36.7 °F 97% 30.16 in 0.8 mi Calm Calm - N/A   Mist
4:53 AM 35.8 °F - 35.2 °F 98% 30.16 in 0.2 mi Calm Calm - N/A Fog Fog
5:13 AM 33.8 °F - 33.4 °F 99% 30.17 in 0.2 mi Calm Calm - N/A Fog Fog
5:33 AM 32.9 °F - 32.9 °F 100% 30.17 in 0.2 mi Calm Calm - N/A Fog Fog
5:53 AM 32.4 °F - 32.4 °F 100% 30.18 in 0.2 mi Calm Calm - N/A Fog Fog
6:14 AM 32.0 °F - 32.0 °F 100% 30.19 in 0.2 mi Calm Calm - N/A Fog Fog
6:34 AM 32.0 °F - 32.0 °F 100% 30.20 in 0.2 mi Calm Calm - N/A Fog Fog
6:54 AM 30.7 °F - 30.7 °F 100% 30.20 in 0.2 mi Calm Calm - N/A Fog Light Freezing Fog
7:14 AM 30.9 °F - 30.9 °F 100% 30.21 in 0.2 mi Calm Calm - N/A Fog Light Freezing Fog
7:34 AM 30.9 °F - 30.9 °F 100% 30.21 in 0.2 mi Calm Calm - N/A Fog Light Freezing Fog
7:54 AM 30.7 °F - 30.7 °F 100% 30.21 in 0.2 mi Calm Calm - N/A Fog Light Freezing Fog
8:14 AM 31.5 °F - 31.5 °F 100% 30.22 in 0.2 mi Calm Calm - N/A Fog Light Freezing Fog
8:34 AM 31.3 °F - 31.3 °F 100% 30.22 in 0.2 mi Calm Calm - N/A Fog Light Freezing Fog
8:54 AM 32.0 °F - 32.0 °F 100% 30.22 in 0.2 mi Calm Calm - N/A Fog Fog
9:15 AM 34.3 °F - 34.3 °F 100% 30.22 in 0.2 mi Calm Calm - N/A Fog Fog
9:35 AM 36.9 °F - 36.9 °F 100% 30.22 in 0.2 mi Calm Calm - N/A Fog Fog
9:55 AM 39.9 °F - 39.9 °F 100% 30.22 in 0.5 mi Calm Calm - N/A Fog Fog
10:15 AM 43.7 °F - 43.5 °F 99% 30.22 in 3.0 mi Calm Calm - N/A   Scattered Clouds
10:35 AM 45.5 °F - 45.0 °F 98% 30.23 in 4.0 mi Calm Calm - N/A   Clear
10:55 AM 46.8 °F - 45.3 °F 95% 30.24 in 4.0 mi Calm Calm - N/A   Clear
11:15 AM 48.2 °F - 46.0 °F 92% 30.22 in 4.0 mi SSW 3.5 mph - N/A   Clear
11:30 AM 49.1 °F - 46.4 °F 90% 30.21 in 4.0 mi Calm Calm - N/A   Clear
11:51 AM 50.5 °F - 47.3 °F 89% 30.21 in 4.0 mi WSW 3.5 mph - N/A   Clear
12:11 PM 52.2 °F - 46.9 °F 82% 30.20 in 5.0 mi WSW 4.6 mph - N/A   Haze
12:31 PM 53.1 °F - 45.3 °F 75% 30.20 in 5.0 mi SW 4.6 mph - N/A   Haze
12:51 PM 53.8 °F - 45.7 °F 74% 30.19 in 7.0 mi South 9.2 mph - N/A   Clear
1:11 PM 54.3 °F - 45.7 °F 73% 30.19 in 5.0 mi SSW 6.9 mph - N/A   Haze
1:31 PM 54.9 °F - 45.7 °F 71% 30.18 in 5.0 mi SSW 10.4 mph - N/A   Haze
1:51 PM 54.9 °F - 44.8 °F 69% 30.17 in 5.0 mi SSW 5.8 mph - N/A   Haze
2:11 PM 55.0 °F - 44.6 °F 68% 30.16 in 5.0 mi SSW 8.1 mph - N/A   Haze
2:32 PM 54.7 °F - 44.1 °F 67% 30.16 in 5.0 mi South 10.4 mph - N/A   Haze
2:52 PM 54.9 °F - 43.9 °F 66% 30.15 in 5.0 mi SSW 11.5 mph - N/A   Haze
3:12 PM 54.1 °F - 43.9 °F 68% 30.16 in 5.0 mi SSW 8.1 mph - N/A   Haze
3:32 PM 54.7 °F - 44.1 °F 67% 30.15 in 5.0 mi SSW 9.2 mph - N/A   Haze
3:52 PM 54.3 °F - 43.9 °F 68% 30.15 in 5.0 mi SSW 9.2 mph - N/A   Haze
4:12 PM 53.2 °F - 43.7 °F 70% 30.15 in 5.0 mi SSW 6.9 mph - N/A   Haze
4:32 PM 52.0 °F - 43.7 °F 73% 30.14 in 5.0 mi South 8.1 mph - N/A   Haze
4:52 PM 50.9 °F - 43.7 °F 76% 30.14 in 5.0 mi South 5.8 mph - N/A   Haze
5:12 PM 49.5 °F - 43.2 °F 79% 30.14 in 5.0 mi SSW 4.6 mph - N/A   Haze
5:33 PM 46.9 °F - 42.3 °F 84% 30.13 in 7.0 mi South 4.6 mph - N/A   Clear
5:53 PM 46.6 °F - 42.3 °F 85% 30.14 in 7.0 mi SSW 4.6 mph - N/A   Clear
6:13 PM 45.9 °F 43.6 °F 41.9 °F 86% 30.14 in 7.0 mi South 4.6 mph - N/A   Clear
6:33 PM 45.9 °F 42.9 °F 42.1 °F 87% 30.14 in 7.0 mi South 5.8 mph - N/A   Clear
6:53 PM 46.0 °F 43.9 °F 42.3 °F 87% 30.14 in 7.0 mi South 4.6 mph - N/A   Clear
7:13 PM 45.0 °F 42.6 °F 41.5 °F 88% 30.14 in 5.0 mi SSW 4.6 mph - N/A   Clear
7:33 PM 43.0 °F 40.3 °F 40.5 °F 91% 30.13 in 5.0 mi South 4.6 mph - N/A   Clear
7:53 PM 43.7 °F 42.1 °F 41.0 °F 90% 30.13 in 5.0 mi South 3.5 mph - N/A   Clear
8:14 PM 42.1 °F 37.7 °F 40.1 °F 93% 30.13 in 4.0 mi South 6.9 mph - N/A   Clear
8:34 PM 44.1 °F 40.1 °F 41.9 °F 92% 30.13 in 4.0 mi South 6.9 mph - N/A   Clear
8:54 PM 45.5 °F 40.8 °F 42.6 °F 90% 30.13 in 5.0 mi SSW 9.2 mph - N/A   Clear
9:14 PM 44.8 °F 39.9 °F 42.1 °F 90% 30.13 in 5.0 mi SSW 9.2 mph - N/A   Clear
9:34 PM 44.1 °F 40.1 °F 41.9 °F 92% 30.13 in 5.0 mi SSW 6.9 mph - N/A   Clear
9:54 PM 43.7 °F 39.1 °F 41.7 °F 93% 30.12 in 4.0 mi South 8.1 mph - N/A   Clear
10:14 PM 43.0 °F 38.2 °F 41.2 °F 93% 30.12 in 4.0 mi South 8.1 mph - N/A   Clear
10:34 PM 43.0 °F 38.2 °F 41.2 °F 93% 30.11 in 3.0 mi South 8.1 mph - N/A   Clear
10:54 PM 42.8 °F 37.5 °F 41.2 °F 94% 30.11 in 3.0 mi South 9.2 mph - N/A   Clear
11:15 PM 42.8 °F 37.5 °F 41.2 °F 94% 30.10 in 3.0 mi South 9.2 mph - N/A   Clear
11:35 PM 42.8 °F 37.5 °F 41.5 °F 95% 30.09 in 3.0 mi South 9.2 mph - N/A   Clear
11:54 PM 43.5 °F 38.3 °F 42.1 °F 95% 30.09 in 3.0 mi SSW 9.2 mph - N/A   Clear